Location: Cahas Mountain Overlook
(37.0833°N, 80.1000°W)
Time: 01:02:47
(UTC-05:00)

Explorer 11/Cluster Stage 4 - Visible Passes

Search period start: 29 November 2023 00:00
Search period end: 09 December 2023 00:00
Orbit: 465 x 1228 km, 28.8° (Epoch: 28 November)

Date Brightness Start Highest point End Pass type
(mag) Time Alt. Az. Time Alt. Az. Time Alt. Az.
29 Nov 7.7 17:26:14 10° SW 17:30:18 26° S 17:33:47 10° ESE visible
29 Nov 7.7 19:14:29 10° WSW 19:17:31 22° SSW 19:17:31 22° SSW visible
30 Nov 7.6 18:58:31 10° WSW 19:01:55 22° SSW 19:02:49 20° S visible
01 Dec 7.8 18:42:30 10° WSW 18:46:05 22° SSW 18:48:10 15° SSE visible
02 Dec 8.1 18:26:28 10° WSW 18:30:13 22° SSW 18:33:28 10° SE visible
03 Dec 8.2 18:10:23 10° WSW 18:14:19 22° SSW 18:17:43 10° SE visible
04 Dec 8.4 17:54:15 10° WSW 17:58:23 22° SSW 18:01:56 10° SSE visible
05 Dec 8.6 17:38:06 10° WSW 17:42:25 22° SSW 17:46:07 10° SSE visible
